#datetime,building,power
2023-04-07T00:00:00,mfh,43.31
2023-04-07T00:01:00,mfh,43.58
2023-04-07T00:02:00,mfh,42.26
2023-04-07T00:03:00,mfh,42.20
2023-04-07T00:04:00,mfh,42.02
2023-04-07T00:05:00,mfh,42.75
2023-04-07T00:06:00,mfh,42.57
2023-04-07T00:07:00,mfh,42.54
2023-04-07T00:08:00,mfh,37.22
2023-04-07T00:09:00,mfh,30.88
2023-04-07T00:10:00,mfh,30.29
2023-04-07T00:11:00,mfh,30.52
2023-04-07T00:12:00,mfh,30.43
2023-04-07T00:13:00,mfh,30.62
2023-04-07T00:14:00,mfh,31.26
2023-04-07T00:15:00,mfh,30.47
2023-04-07T00:16:00,mfh,30.50
2023-04-07T00:17:00,mfh,30.65
2023-04-07T00:18:00,mfh,31.59
2023-04-07T00:19:00,mfh,30.90
2023-04-07T00:20:00,mfh,30.18
2023-04-07T00:21:00,mfh,30.17
2023-04-07T00:22:00,mfh,30.29
2023-04-07T00:23:00,mfh,30.72
2023-04-07T00:24:00,mfh,30.82
2023-04-07T00:25:00,mfh,30.91
2023-04-07T00:26:00,mfh,30.89
2023-04-07T00:27:00,mfh,31.01
2023-04-07T00:28:00,mfh,30.95
2023-04-07T00:29:00,mfh,30.87
2023-04-07T00:30:00,mfh,30.53
2023-04-07T00:31:00,mfh,30.42
2023-04-07T00:32:00,mfh,31.00
2023-04-07T00:33:00,mfh,30.93
2023-04-07T00:34:00,mfh,31.19
2023-04-07T00:35:00,mfh,31.64
2023-04-07T00:36:00,mfh,31.27
2023-04-07T00:37:00,mfh,30.96
2023-04-07T00:38:00,mfh,30.21
2023-04-07T00:39:00,mfh,30.52
2023-04-07T00:40:00,mfh,30.25
2023-04-07T00:41:00,mfh,30.86
2023-04-07T00:42:00,mfh,30.83
2023-04-07T00:43:00,mfh,31.48
2023-04-07T00:44:00,mfh,30.85
2023-04-07T00:45:00,mfh,30.85
2023-04-07T00:46:00,mfh,30.13
2023-04-07T00:47:00,mfh,32.18
2023-04-07T00:48:00,mfh,30.22
2023-04-07T00:49:00,mfh,30.84
2023-04-07T00:50:00,mfh,31.31
2023-04-07T00:51:00,mfh,30.98
2023-04-07T00:52:00,mfh,30.86
2023-04-07T00:53:00,mfh,30.80
2023-04-07T00:54:00,mfh,30.92
2023-04-07T00:55:00,mfh,30.86
2023-04-07T00:56:00,mfh,29.95
2023-04-07T00:57:00,mfh,29.96
2023-04-07T00:58:00,mfh,29.94
2023-04-07T00:59:00,mfh,30.57
2023-04-07T01:00:00,mfh,30.57
2023-04-07T01:01:00,mfh,31.54
2023-04-07T01:02:00,mfh,30.60
2023-04-07T01:03:00,mfh,30.58
2023-04-07T01:04:00,mfh,30.97
2023-04-07T01:05:00,mfh,29.86
2023-04-07T01:06:00,mfh,30.25
2023-04-07T01:07:00,mfh,30.13
2023-04-07T01:08:00,mfh,31.26
2023-04-07T01:09:00,mfh,30.74
2023-04-07T01:10:00,mfh,30.76
2023-04-07T01:11:00,mfh,31.12
2023-04-07T01:12:00,mfh,30.98
2023-04-07T01:13:00,mfh,30.94
2023-04-07T01:14:00,mfh,30.95
2023-04-07T01:15:00,mfh,30.41
2023-04-07T01:16:00,mfh,30.40
2023-04-07T01:17:00,mfh,30.31
2023-04-07T01:18:00,mfh,31.97
2023-04-07T01:19:00,mfh,30.48
2023-04-07T01:20:00,mfh,30.45
2023-04-07T01:21:00,mfh,30.67
2023-04-07T01:22:00,mfh,31.12
2023-04-07T01:23:00,mfh,31.08
2023-04-07T01:24:00,mfh,31.00
2023-04-07T01:25:00,mfh,31.03
2023-04-07T01:26:00,mfh,30.97
2023-04-07T01:27:00,mfh,31.47
2023-04-07T01:28:00,mfh,30.42
2023-04-07T01:29:00,mfh,30.50
2023-04-07T01:30:00,mfh,30.47
2023-04-07T01:31:00,mfh,31.17
2023-04-07T01:32:00,mfh,31.25
2023-04-07T01:33:00,mfh,31.28
2023-04-07T01:34:00,mfh,31.27
2023-04-07T01:35:00,mfh,31.84
2023-04-07T01:36:00,mfh,31.76
2023-04-07T01:37:00,mfh,30.56
2023-04-07T01:38:00,mfh,30.55
2023-04-07T01:39:00,mfh,30.59
2023-04-07T01:40:00,mfh,30.63
2023-04-07T01:41:00,mfh,31.29
2023-04-07T01:42:00,mfh,32.19
2023-04-07T01:43:00,mfh,31.61
2023-04-07T01:44:00,mfh,31.66
2023-04-07T01:45:00,mfh,31.44
2023-04-07T01:46:00,mfh,30.65
2023-04-07T01:47:00,mfh,30.82
2023-04-07T01:48:00,mfh,30.54
2023-04-07T01:49:00,mfh,31.12
2023-04-07T01:50:00,mfh,31.08
2023-04-07T01:51:00,mfh,31.18
2023-04-07T01:52:00,mfh,31.17
2023-04-07T01:53:00,mfh,31.03
2023-04-07T01:54:00,mfh,31.53
2023-04-07T01:55:00,mfh,30.29
2023-04-07T01:56:00,mfh,30.64
2023-04-07T01:57:00,mfh,30.51
2023-04-07T01:58:00,mfh,31.18
2023-04-07T01:59:00,mfh,31.08
2023-04-07T02:00:00,mfh,31.10
2023-04-07T02:01:00,mfh,31.15
2023-04-07T02:02:00,mfh,31.02
2023-04-07T02:03:00,mfh,31.03
2023-04-07T02:04:00,mfh,30.73
2023-04-07T02:05:00,mfh,30.27
2023-04-07T02:06:00,mfh,30.24
2023-04-07T02:07:00,mfh,31.00
2023-04-07T02:08:00,mfh,30.87
2023-04-07T02:09:00,mfh,30.90
2023-04-07T02:10:00,mfh,30.81
2023-04-07T02:11:00,mfh,30.77
2023-04-07T02:12:00,mfh,31.21
2023-04-07T02:13:00,mfh,30.75
2023-04-07T02:14:00,mfh,30.84
2023-04-07T02:15:00,mfh,30.87
2023-04-07T02:16:00,mfh,31.48
2023-04-07T02:17:00,mfh,31.58
2023-04-07T02:18:00,mfh,30.73
2023-04-07T02:19:00,mfh,30.79
2023-04-07T02:20:00,mfh,30.95
2023-04-07T02:21:00,mfh,33.61
2023-04-07T02:22:00,mfh,33.55
2023-04-07T02:23:00,mfh,32.30
2023-04-07T02:24:00,mfh,32.22
2023-04-07T02:25:00,mfh,32.61
2023-04-07T02:26:00,mfh,33.12
2023-04-07T02:27:00,mfh,31.15
2023-04-07T02:28:00,mfh,32.00
2023-04-07T02:29:00,mfh,31.50
2023-04-07T02:30:00,mfh,31.50
2023-04-07T02:31:00,mfh,31.29
2023-04-07T02:32:00,mfh,30.76
2023-04-07T02:33:00,mfh,30.71
2023-04-07T02:34:00,mfh,30.63
2023-04-07T02:35:00,mfh,31.34
2023-04-07T02:36:00,mfh,31.17
2023-04-07T02:37:00,mfh,31.14
2023-04-07T02:38:00,mfh,31.09
2023-04-07T02:39:00,mfh,31.03
2023-04-07T02:40:00,mfh,31.17
2023-04-07T02:41:00,mfh,30.39
2023-04-07T02:42:00,mfh,30.34
2023-04-07T02:43:00,mfh,30.33
2023-04-07T02:44:00,mfh,30.95
2023-04-07T02:45:00,mfh,31.01
2023-04-07T02:46:00,mfh,31.04
2023-04-07T02:47:00,mfh,31.26
2023-04-07T02:48:00,mfh,31.19
2023-04-07T02:49:00,mfh,31.09
2023-04-07T02:50:00,mfh,30.47
2023-04-07T02:51:00,mfh,30.49
2023-04-07T02:52:00,mfh,30.33
2023-04-07T02:53:00,mfh,30.88
2023-04-07T02:54:00,mfh,30.96
2023-04-07T02:55:00,mfh,31.00
2023-04-07T02:56:00,mfh,30.97
2023-04-07T02:57:00,mfh,30.98
2023-04-07T02:58:00,mfh,32.43
2023-04-07T02:59:00,mfh,30.49
2023-04-07T03:00:00,mfh,31.56
2023-04-07T03:01:00,mfh,31.68
2023-04-07T03:02:00,mfh,30.63
2023-04-07T03:03:00,mfh,31.17
2023-04-07T03:04:00,mfh,31.21
2023-04-07T03:05:00,mfh,31.26
2023-04-07T03:06:00,mfh,31.23
2023-04-07T03:07:00,mfh,31.23
2023-04-07T03:08:00,mfh,30.94
2023-04-07T03:09:00,mfh,30.56
2023-04-07T03:10:00,mfh,30.51
2023-04-07T03:11:00,mfh,31.34
2023-04-07T03:12:00,mfh,31.03
2023-04-07T03:13:00,mfh,30.97
2023-04-07T03:14:00,mfh,30.82
2023-04-07T03:15:00,mfh,30.82
2023-04-07T03:16:00,mfh,30.78
2023-04-07T03:17:00,mfh,30.89
2023-04-07T03:18:00,mfh,38.81
2023-04-07T03:19:00,mfh,39.91
2023-04-07T03:20:00,mfh,42.20
2023-04-07T03:21:00,mfh,41.83
2023-04-07T03:22:00,mfh,42.69
2023-04-07T03:23:00,mfh,42.00
2023-04-07T03:24:00,mfh,42.15
2023-04-07T03:25:00,mfh,42.47
2023-04-07T03:26:00,mfh,41.37
2023-04-07T03:27:00,mfh,41.16
2023-04-07T03:28:00,mfh,41.16
2023-04-07T03:29:00,mfh,41.15
2023-04-07T03:30:00,mfh,42.24
2023-04-07T03:31:00,mfh,41.91
2023-04-07T03:32:00,mfh,41.83
2023-04-07T03:33:00,mfh,41.97
2023-04-07T03:34:00,mfh,42.00
2023-04-07T03:35:00,mfh,41.15
2023-04-07T03:36:00,mfh,41.24
2023-04-07T03:37:00,mfh,41.32
2023-04-07T03:38:00,mfh,41.40
2023-04-07T03:39:00,mfh,42.40
2023-04-07T03:40:00,mfh,41.77
2023-04-07T03:41:00,mfh,41.78
2023-04-07T03:42:00,mfh,41.76
2023-04-07T03:43:00,mfh,41.98
2023-04-07T03:44:00,mfh,42.00
2023-04-07T03:45:00,mfh,41.29
2023-04-07T03:46:00,mfh,41.23
2023-04-07T03:47:00,mfh,41.19
2023-04-07T03:48:00,mfh,40.93
2023-04-07T03:49:00,mfh,41.06
2023-04-07T03:50:00,mfh,40.84
2023-04-07T03:51:00,mfh,42.01
2023-04-07T03:52:00,mfh,40.98
2023-04-07T03:53:00,mfh,41.01
2023-04-07T03:54:00,mfh,40.14
2023-04-07T03:55:00,mfh,40.19
2023-04-07T03:56:00,mfh,41.34
2023-04-07T03:57:00,mfh,41.94
2023-04-07T03:58:00,mfh,42.62
2023-04-07T03:59:00,mfh,42.48
2023-04-07T04:00:00,mfh,42.20
2023-04-07T04:01:00,mfh,41.96
2023-04-07T04:02:00,mfh,41.95
2023-04-07T04:03:00,mfh,41.31
2023-04-07T04:04:00,mfh,40.28
2023-04-07T04:05:00,mfh,40.19
2023-04-07T04:06:00,mfh,41.92
2023-04-07T04:07:00,mfh,40.83
2023-04-07T04:08:00,mfh,41.81
2023-04-07T04:09:00,mfh,42.51
2023-04-07T04:10:00,mfh,41.87
2023-04-07T04:11:00,mfh,40.57
2023-04-07T04:12:00,mfh,40.00
2023-04-07T04:13:00,mfh,41.11
2023-04-07T04:14:00,mfh,41.84
2023-04-07T04:15:00,mfh,42.42
2023-04-07T04:16:00,mfh,43.01
2023-04-07T04:17:00,mfh,43.04
2023-04-07T04:18:00,mfh,43.61
2023-04-07T04:19:00,mfh,42.51
2023-04-07T04:20:00,mfh,43.69
2023-04-07T04:21:00,mfh,42.10
2023-04-07T04:22:00,mfh,41.45
2023-04-07T04:23:00,mfh,40.24
2023-04-07T04:24:00,mfh,40.24
2023-04-07T04:25:00,mfh,41.30
2023-04-07T04:26:00,mfh,41.78
2023-04-07T04:27:00,mfh,41.28
2023-04-07T04:28:00,mfh,41.40
2023-04-07T04:29:00,mfh,41.37
2023-04-07T04:30:00,mfh,40.57
2023-04-07T04:31:00,mfh,40.59
2023-04-07T04:32:00,mfh,40.63
2023-04-07T04:33:00,mfh,41.19
2023-04-07T04:34:00,mfh,41.37
2023-04-07T04:35:00,mfh,41.15
2023-04-07T04:36:00,mfh,41.14
2023-04-07T04:37:00,mfh,41.25
2023-04-07T04:38:00,mfh,41.16
2023-04-07T04:39:00,mfh,41.18
2023-04-07T04:40:00,mfh,40.44
2023-04-07T04:41:00,mfh,40.48
2023-04-07T04:42:00,mfh,40.48
2023-04-07T04:43:00,mfh,41.17
2023-04-07T04:44:00,mfh,41.06
2023-04-07T04:45:00,mfh,41.10
2023-04-07T04:46:00,mfh,41.15
2023-04-07T04:47:00,mfh,41.22
2023-04-07T04:48:00,mfh,41.51
2023-04-07T04:49:00,mfh,40.56
2023-04-07T04:50:00,mfh,40.47
2023-04-07T04:51:00,mfh,40.92
2023-04-07T04:52:00,mfh,41.76
2023-04-07T04:53:00,mfh,41.07
2023-04-07T04:54:00,mfh,41.38
2023-04-07T04:55:00,mfh,41.14
2023-04-07T04:56:00,mfh,41.88
2023-04-07T04:57:00,mfh,41.64
2023-04-07T04:58:00,mfh,41.17
2023-04-07T04:59:00,mfh,42.56
2023-04-07T05:00:00,mfh,43.55
2023-04-07T05:01:00,mfh,60.44
2023-04-07T05:02:00,mfh,65.51
2023-04-07T05:03:00,mfh,65.71
2023-04-07T05:04:00,mfh,65.80
2023-04-07T05:05:00,mfh,65.91
2023-04-07T05:06:00,mfh,65.31
2023-04-07T05:07:00,mfh,64.52
2023-04-07T05:08:00,mfh,63.95
2023-04-07T05:09:00,mfh,63.83
2023-04-07T05:10:00,mfh,64.73
2023-04-07T05:11:00,mfh,63.81
2023-04-07T05:12:00,mfh,63.69
2023-04-07T05:13:00,mfh,64.54
2023-04-07T05:14:00,mfh,63.61
2023-04-07T05:15:00,mfh,63.50
2023-04-07T05:16:00,mfh,62.53
2023-04-07T05:17:00,mfh,62.43
2023-04-07T05:18:00,mfh,62.45
2023-04-07T05:19:00,mfh,62.78
2023-04-07T05:20:00,mfh,64.01
2023-04-07T05:21:00,mfh,63.84
2023-04-07T05:22:00,mfh,63.73
2023-04-07T05:23:00,mfh,63.93
2023-04-07T05:24:00,mfh,64.22
2023-04-07T05:25:00,mfh,62.83
2023-04-07T05:26:00,mfh,63.28
2023-04-07T05:27:00,mfh,63.75
2023-04-07T05:28:00,mfh,64.39
2023-04-07T05:29:00,mfh,64.38
2023-04-07T05:30:00,mfh,64.74
2023-04-07T05:31:00,mfh,64.99
2023-04-07T05:32:00,mfh,64.94
2023-04-07T05:33:00,mfh,65.06
2023-04-07T05:34:00,mfh,64.23
2023-04-07T05:35:00,mfh,63.87
2023-04-07T05:36:00,mfh,63.90
2023-04-07T05:37:00,mfh,62.96
2023-04-07T05:38:00,mfh,63.43
2023-04-07T05:39:00,mfh,63.36
2023-04-07T05:40:00,mfh,63.94
2023-04-07T05:41:00,mfh,63.34
2023-04-07T05:42:00,mfh,63.23
2023-04-07T05:43:00,mfh,62.63
2023-04-07T05:44:00,mfh,62.70
2023-04-07T05:45:00,mfh,62.19
2023-04-07T05:46:00,mfh,62.98
2023-04-07T05:47:00,mfh,63.32
2023-04-07T05:48:00,mfh,62.86
2023-04-07T05:49:00,mfh,62.97
2023-04-07T05:50:00,mfh,63.40
2023-04-07T05:51:00,mfh,62.80
2023-04-07T05:52:00,mfh,62.28
2023-04-07T05:53:00,mfh,62.87
2023-04-07T05:54:00,mfh,63.44
2023-04-07T05:55:00,mfh,62.48
2023-04-07T05:56:00,mfh,63.17
2023-04-07T05:57:00,mfh,63.13
2023-04-07T05:58:00,mfh,63.03
2023-04-07T05:59:00,mfh,63.86
2023-04-07T06:00:00,mfh,63.86
2023-04-07T06:01:00,mfh,67.98
2023-04-07T06:02:00,mfh,68.07
2023-04-07T06:03:00,mfh,68.64
2023-04-07T06:04:00,mfh,69.24
2023-04-07T06:05:00,mfh,68.99
2023-04-07T06:06:00,mfh,68.95
2023-04-07T06:07:00,mfh,68.82
2023-04-07T06:08:00,mfh,68.91
2023-04-07T06:09:00,mfh,68.83
2023-04-07T06:10:00,mfh,69.48
2023-04-07T06:11:00,mfh,69.24
2023-04-07T06:12:00,mfh,69.92
2023-04-07T06:13:00,mfh,70.13
2023-04-07T06:14:00,mfh,69.83
2023-04-07T06:15:00,mfh,69.82
2023-04-07T06:16:00,mfh,70.08
2023-04-07T06:17:00,mfh,69.89
2023-04-07T06:18:00,mfh,69.90
2023-04-07T06:19:00,mfh,70.37
2023-04-07T06:20:00,mfh,69.26
2023-04-07T06:21:00,mfh,69.40
2023-04-07T06:22:00,mfh,69.57
2023-04-07T06:23:00,mfh,69.50
2023-04-07T06:24:00,mfh,70.07
2023-04-07T06:25:00,mfh,69.44
2023-04-07T06:26:00,mfh,70.06
2023-04-07T06:27:00,mfh,70.87
2023-04-07T06:28:00,mfh,70.96
2023-04-07T06:29:00,mfh,69.58
2023-04-07T06:30:00,mfh,69.20
2023-04-07T06:31:00,mfh,68.58
2023-04-07T06:32:00,mfh,68.97
2023-04-07T06:33:00,mfh,68.22
2023-04-07T06:34:00,mfh,68.34
2023-04-07T06:35:00,mfh,69.08
2023-04-07T06:36:00,mfh,69.17
2023-04-07T06:37:00,mfh,69.16
2023-04-07T06:38:00,mfh,68.67
2023-04-07T06:39:00,mfh,68.36
2023-04-07T06:40:00,mfh,68.94
2023-04-07T06:41:00,mfh,68.59
2023-04-07T06:42:00,mfh,68.56
2023-04-07T06:43:00,mfh,69.34
2023-04-07T06:44:00,mfh,69.56
2023-04-07T06:45:00,mfh,69.40
2023-04-07T06:46:00,mfh,69.42
2023-04-07T06:47:00,mfh,70.07
2023-04-07T06:48:00,mfh,69.71
2023-04-07T06:49:00,mfh,69.12
2023-04-07T06:50:00,mfh,69.23
2023-04-07T06:51:00,mfh,70.66
2023-04-07T06:52:00,mfh,69.34
2023-04-07T06:53:00,mfh,68.94
2023-04-07T06:54:00,mfh,68.93
2023-04-07T06:55:00,mfh,68.74
2023-04-07T06:56:00,mfh,68.80
2023-04-07T06:57:00,mfh,70.01
2023-04-07T06:58:00,mfh,68.91
2023-04-07T06:59:00,mfh,68.92
2023-04-07T07:00:00,mfh,69.00
2023-04-07T07:01:00,mfh,68.93
2023-04-07T07:02:00,mfh,68.31
2023-04-07T07:03:00,mfh,83.38
2023-04-07T07:04:00,mfh,85.00
2023-04-07T07:05:00,mfh,85.37
2023-04-07T07:06:00,mfh,85.04
2023-04-07T07:07:00,mfh,84.75
2023-04-07T07:08:00,mfh,84.38
2023-04-07T07:09:00,mfh,84.08
2023-04-07T07:10:00,mfh,84.02
2023-04-07T07:11:00,mfh,83.75
2023-04-07T07:12:00,mfh,78.33
2023-04-07T07:13:00,mfh,78.31
2023-04-07T07:14:00,mfh,77.84
2023-04-07T07:15:00,mfh,77.69
2023-04-07T07:16:00,mfh,78.23
2023-04-07T07:17:00,mfh,78.12
2023-04-07T07:18:00,mfh,78.48
2023-04-07T07:19:00,mfh,77.97
2023-04-07T07:20:00,mfh,77.92
2023-04-07T07:21:00,mfh,66.59
2023-04-07T07:22:00,mfh,66.90
2023-04-07T07:23:00,mfh,66.90
2023-04-07T07:24:00,mfh,67.28
2023-04-07T07:25:00,mfh,67.52
2023-04-07T07:26:00,mfh,67.14
2023-04-07T07:27:00,mfh,66.70
2023-04-07T07:28:00,mfh,66.89
2023-04-07T07:29:00,mfh,67.22
2023-04-07T07:30:00,mfh,68.86
2023-04-07T07:31:00,mfh,68.43
2023-04-07T07:32:00,mfh,68.63
2023-04-07T07:33:00,mfh,69.21
2023-04-07T07:34:00,mfh,68.45
2023-04-07T07:35:00,mfh,68.28
2023-04-07T07:36:00,mfh,68.08
2023-04-07T07:37:00,mfh,68.35
2023-04-07T07:38:00,mfh,67.80
2023-04-07T07:39:00,mfh,66.93
2023-04-07T07:40:00,mfh,66.78
2023-04-07T07:41:00,mfh,66.74
2023-04-07T07:42:00,mfh,66.98
2023-04-07T07:43:00,mfh,66.96
2023-04-07T07:44:00,mfh,66.72
2023-04-07T07:45:00,mfh,66.59
2023-04-07T07:46:00,mfh,66.80
2023-04-07T07:47:00,mfh,66.54
2023-04-07T07:48:00,mfh,66.36
2023-04-07T07:49:00,mfh,66.55
2023-04-07T07:50:00,mfh,66.51
2023-04-07T07:51:00,mfh,66.40
2023-04-07T07:52:00,mfh,66.43
2023-04-07T07:53:00,mfh,65.92
2023-04-07T07:54:00,mfh,66.96
2023-04-07T07:55:00,mfh,66.14
2023-04-07T07:56:00,mfh,66.73
2023-04-07T07:57:00,mfh,67.55
2023-04-07T07:58:00,mfh,67.53
2023-04-07T07:59:00,mfh,67.59
2023-04-07T08:00:00,mfh,68.33
2023-04-07T08:01:00,mfh,67.69
2023-04-07T08:02:00,mfh,67.63
2023-04-07T08:03:00,mfh,68.10
2023-04-07T08:04:00,mfh,67.62
2023-04-07T08:05:00,mfh,67.54
2023-04-07T08:06:00,mfh,67.97
2023-04-07T08:07:00,mfh,68.43
2023-04-07T08:08:00,mfh,68.46
2023-04-07T08:09:00,mfh,69.23
2023-04-07T08:10:00,mfh,69.13
2023-04-07T08:11:00,mfh,69.40
2023-04-07T08:12:00,mfh,69.16
2023-04-07T08:13:00,mfh,69.34
2023-04-07T08:14:00,mfh,69.04
2023-04-07T08:15:00,mfh,69.30
2023-04-07T08:16:00,mfh,68.94
2023-04-07T08:17:00,mfh,69.02
2023-04-07T08:18:00,mfh,67.87
2023-04-07T08:19:00,mfh,68.06
2023-04-07T08:20:00,mfh,68.37
2023-04-07T08:21:00,mfh,83.17
2023-04-07T08:22:00,mfh,83.83
2023-04-07T08:23:00,mfh,83.89
2023-04-07T08:24:00,mfh,83.67
2023-04-07T08:25:00,mfh,84.02
2023-04-07T08:26:00,mfh,83.87
2023-04-07T08:27:00,mfh,83.64
2023-04-07T08:28:00,mfh,83.53
2023-04-07T08:29:00,mfh,83.09
2023-04-07T08:30:00,mfh,82.36
2023-04-07T08:31:00,mfh,82.16
2023-04-07T08:32:00,mfh,82.32
2023-04-07T08:33:00,mfh,82.33
2023-04-07T08:34:00,mfh,82.16
2023-04-07T08:35:00,mfh,81.87
2023-04-07T08:36:00,mfh,81.96
2023-04-07T08:37:00,mfh,82.60
2023-04-07T08:38:00,mfh,82.40
2023-04-07T08:39:00,mfh,86.29
2023-04-07T08:40:00,mfh,86.62
2023-04-07T08:41:00,mfh,86.41
2023-04-07T08:42:00,mfh,86.32
2023-04-07T08:43:00,mfh,86.32
2023-04-07T08:44:00,mfh,86.43
2023-04-07T08:45:00,mfh,86.39
2023-04-07T08:46:00,mfh,86.38
2023-04-07T08:47:00,mfh,86.23
2023-04-07T08:48:00,mfh,86.10
2023-04-07T08:49:00,mfh,86.04
2023-04-07T08:50:00,mfh,85.97
2023-04-07T08:51:00,mfh,86.19
2023-04-07T08:52:00,mfh,85.87
2023-04-07T08:53:00,mfh,85.69
2023-04-07T08:54:00,mfh,85.69
2023-04-07T08:55:00,mfh,85.89
2023-04-07T08:56:00,mfh,84.18
2023-04-07T08:57:00,mfh,79.45
2023-04-07T08:58:00,mfh,79.54
2023-04-07T08:59:00,mfh,79.51
2023-04-07T09:00:00,mfh,79.58
2023-04-07T09:01:00,mfh,79.61
2023-04-07T09:02:00,mfh,79.16
2023-04-07T09:03:00,mfh,83.07
2023-04-07T09:04:00,mfh,82.51
2023-04-07T09:05:00,mfh,83.30
2023-04-07T09:06:00,mfh,82.83
2023-04-07T09:07:00,mfh,82.78
2023-04-07T09:08:00,mfh,82.78
2023-04-07T09:09:00,mfh,82.58
2023-04-07T09:10:00,mfh,82.51
2023-04-07T09:11:00,mfh,82.72
2023-04-07T09:12:00,mfh,82.80
2023-04-07T09:13:00,mfh,82.88
2023-04-07T09:14:00,mfh,82.91
2023-04-07T09:15:00,mfh,82.77
2023-04-07T09:16:00,mfh,82.32
2023-04-07T09:17:00,mfh,82.22
2023-04-07T09:18:00,mfh,82.37
2023-04-07T09:19:00,mfh,82.61
2023-04-07T09:20:00,mfh,77.47
2023-04-07T09:21:00,mfh,77.60
2023-04-07T09:22:00,mfh,77.77
2023-04-07T09:23:00,mfh,77.86
2023-04-07T09:24:00,mfh,77.74
2023-04-07T09:25:00,mfh,78.06
2023-04-07T09:26:00,mfh,83.23
2023-04-07T09:27:00,mfh,83.38
2023-04-07T09:28:00,mfh,82.90
2023-04-07T09:29:00,mfh,86.99
2023-04-07T09:30:00,mfh,86.81
2023-04-07T09:31:00,mfh,86.94
2023-04-07T09:32:00,mfh,86.96
2023-04-07T09:33:00,mfh,86.88
2023-04-07T09:34:00,mfh,86.79
2023-04-07T09:35:00,mfh,86.90
2023-04-07T09:36:00,mfh,86.63
2023-04-07T09:37:00,mfh,86.69
2023-04-07T09:38:00,mfh,86.59
2023-04-07T09:39:00,mfh,86.73
2023-04-07T09:40:00,mfh,86.32
2023-04-07T09:41:00,mfh,86.34
2023-04-07T09:42:00,mfh,86.61
2023-04-07T09:43:00,mfh,86.58
2023-04-07T09:44:00,mfh,86.57
2023-04-07T09:45:00,mfh,86.52
2023-04-07T09:46:00,mfh,86.48
2023-04-07T09:47:00,mfh,86.51
2023-04-07T09:48:00,mfh,86.47
2023-04-07T09:49:00,mfh,86.47
2023-04-07T09:50:00,mfh,86.30
2023-04-07T09:51:00,mfh,86.43
2023-04-07T09:52:00,mfh,82.73
2023-04-07T09:53:00,mfh,82.56
2023-04-07T09:54:00,mfh,86.38
2023-04-07T09:55:00,mfh,86.70
2023-04-07T09:56:00,mfh,86.19
2023-04-07T09:57:00,mfh,86.30
2023-04-07T09:58:00,mfh,86.19
2023-04-07T09:59:00,mfh,86.33
2023-04-07T10:00:00,mfh,86.35
2023-04-07T10:01:00,mfh,86.17
2023-04-07T10:02:00,mfh,86.31
2023-04-07T10:03:00,mfh,86.38
2023-04-07T10:04:00,mfh,86.36
2023-04-07T10:05:00,mfh,86.34
2023-04-07T10:06:00,mfh,86.30
2023-04-07T10:07:00,mfh,86.31
2023-04-07T10:08:00,mfh,86.80
2023-04-07T10:09:00,mfh,86.51
2023-04-07T10:10:00,mfh,86.80
2023-04-07T10:11:00,mfh,86.65
2023-04-07T10:12:00,mfh,86.71
2023-04-07T10:13:00,mfh,86.78
2023-04-07T10:14:00,mfh,86.76
2023-04-07T10:15:00,mfh,86.88
2023-04-07T10:16:00,mfh,86.67
2023-04-07T10:17:00,mfh,86.70
2023-04-07T10:18:00,mfh,86.73
2023-04-07T10:19:00,mfh,87.03
2023-04-07T10:20:00,mfh,86.79
2023-04-07T10:21:00,mfh,86.96
2023-04-07T10:22:00,mfh,86.96
2023-04-07T10:23:00,mfh,87.23
2023-04-07T10:24:00,mfh,87.20
2023-04-07T10:25:00,mfh,87.33
2023-04-07T10:26:00,mfh,87.24
2023-04-07T10:27:00,mfh,87.20
2023-04-07T10:28:00,mfh,87.62
2023-04-07T10:29:00,mfh,87.66
2023-04-07T10:30:00,mfh,87.24
2023-04-07T10:31:00,mfh,87.09
2023-04-07T10:32:00,mfh,87.09
2023-04-07T10:33:00,mfh,87.09
2023-04-07T10:34:00,mfh,87.27
2023-04-07T10:35:00,mfh,87.41
2023-04-07T10:36:00,mfh,87.45
2023-04-07T10:37:00,mfh,87.40
2023-04-07T10:38:00,mfh,87.42
2023-04-07T10:39:00,mfh,87.44
2023-04-07T10:40:00,mfh,87.37
2023-04-07T10:41:00,mfh,87.39
2023-04-07T10:42:00,mfh,87.03
2023-04-07T10:43:00,mfh,86.91
2023-04-07T10:44:00,mfh,86.90
2023-04-07T10:45:00,mfh,86.92
2023-04-07T10:46:00,mfh,87.09
2023-04-07T10:47:00,mfh,87.07
2023-04-07T10:48:00,mfh,86.69
2023-04-07T10:49:00,mfh,86.66
2023-04-07T10:50:00,mfh,86.57
2023-04-07T10:51:00,mfh,86.47
2023-04-07T10:52:00,mfh,86.37
2023-04-07T10:53:00,mfh,86.42
2023-04-07T10:54:00,mfh,86.44
2023-04-07T10:55:00,mfh,86.18
2023-04-07T10:56:00,mfh,86.04
2023-04-07T10:57:00,mfh,86.24
2023-04-07T10:58:00,mfh,86.26
2023-04-07T10:59:00,mfh,86.39
2023-04-07T11:00:00,mfh,86.65
2023-04-07T11:01:00,mfh,86.27
2023-04-07T11:02:00,mfh,86.41
2023-04-07T11:03:00,mfh,86.20
2023-04-07T11:04:00,mfh,86.28
2023-04-07T11:05:00,mfh,86.18
2023-04-07T11:06:00,mfh,86.23
2023-04-07T11:07:00,mfh,86.12
2023-04-07T11:08:00,mfh,86.11
2023-04-07T11:09:00,mfh,86.15
2023-04-07T11:10:00,mfh,86.74
2023-04-07T11:11:00,mfh,86.83
2023-04-07T11:12:00,mfh,86.84
2023-04-07T11:13:00,mfh,86.89
2023-04-07T11:14:00,mfh,86.90
2023-04-07T11:15:00,mfh,86.98
2023-04-07T11:16:00,mfh,86.95
2023-04-07T11:17:00,mfh,86.98
2023-04-07T11:18:00,mfh,86.82
2023-04-07T11:19:00,mfh,86.82
2023-04-07T11:20:00,mfh,86.93
2023-04-07T11:21:00,mfh,86.96
2023-04-07T11:22:00,mfh,87.11
2023-04-07T11:23:00,mfh,86.83
2023-04-07T11:24:00,mfh,86.96
2023-04-07T11:25:00,mfh,86.98
2023-04-07T11:26:00,mfh,87.15
2023-04-07T11:27:00,mfh,87.15
2023-04-07T11:28:00,mfh,86.92
2023-04-07T11:29:00,mfh,86.85
2023-04-07T11:30:00,mfh,86.85
2023-04-07T11:31:00,mfh,86.67
2023-04-07T11:32:00,mfh,86.94
2023-04-07T11:33:00,mfh,86.80
2023-04-07T11:34:00,mfh,87.04
2023-04-07T11:35:00,mfh,86.85
2023-04-07T11:36:00,mfh,86.82
2023-04-07T11:37:00,mfh,87.05
2023-04-07T11:38:00,mfh,87.07
2023-04-07T11:39:00,mfh,86.89
2023-04-07T11:40:00,mfh,86.71
2023-04-07T11:41:00,mfh,86.85
2023-04-07T11:42:00,mfh,86.33
2023-04-07T11:43:00,mfh,86.21
2023-04-07T11:44:00,mfh,86.24
2023-04-07T11:45:00,mfh,86.73
2023-04-07T11:46:00,mfh,86.63
2023-04-07T11:47:00,mfh,86.83
2023-04-07T11:48:00,mfh,86.72
2023-04-07T11:49:00,mfh,86.67
2023-04-07T11:50:00,mfh,86.62
2023-04-07T11:51:00,mfh,86.70
2023-04-07T11:52:00,mfh,86.53
2023-04-07T11:53:00,mfh,86.58
2023-04-07T11:54:00,mfh,86.48
2023-04-07T11:55:00,mfh,86.79
2023-04-07T11:56:00,mfh,86.60
2023-04-07T11:57:00,mfh,86.52
2023-04-07T11:58:00,mfh,86.47
2023-04-07T11:59:00,mfh,86.47
2023-04-07T12:00:00,mfh,87.44
2023-04-07T12:01:00,mfh,89.62
2023-04-07T12:02:00,mfh,89.96
2023-04-07T12:03:00,mfh,89.74
2023-04-07T12:04:00,mfh,89.70
2023-04-07T12:05:00,mfh,89.64
2023-04-07T12:06:00,mfh,89.58
2023-04-07T12:07:00,mfh,89.56
2023-04-07T12:08:00,mfh,89.63
2023-04-07T12:09:00,mfh,89.64
2023-04-07T12:10:00,mfh,89.54
2023-04-07T12:11:00,mfh,89.51
2023-04-07T12:12:00,mfh,89.52
2023-04-07T12:13:00,mfh,89.51
2023-04-07T12:14:00,mfh,89.52
2023-04-07T12:15:00,mfh,89.50
2023-04-07T12:16:00,mfh,89.56
2023-04-07T12:17:00,mfh,89.45
2023-04-07T12:18:00,mfh,89.53
2023-04-07T12:19:00,mfh,89.50
2023-04-07T12:20:00,mfh,89.53
2023-04-07T12:21:00,mfh,89.71
2023-04-07T12:22:00,mfh,89.51
2023-04-07T12:23:00,mfh,89.39
2023-04-07T12:24:00,mfh,89.47
2023-04-07T12:25:00,mfh,89.44
2023-04-07T12:26:00,mfh,89.37
2023-04-07T12:27:00,mfh,89.39
2023-04-07T12:28:00,mfh,89.35
2023-04-07T12:29:00,mfh,89.19
2023-04-07T12:30:00,mfh,89.22
2023-04-07T12:31:00,mfh,89.39
2023-04-07T12:32:00,mfh,89.54
2023-04-07T12:33:00,mfh,89.52
2023-04-07T12:34:00,mfh,89.50
2023-04-07T12:35:00,mfh,89.53
2023-04-07T12:36:00,mfh,89.41
2023-04-07T12:37:00,mfh,89.25
2023-04-07T12:38:00,mfh,89.17
2023-04-07T12:39:00,mfh,89.21
2023-04-07T12:40:00,mfh,89.15
2023-04-07T12:41:00,mfh,89.04
2023-04-07T12:42:00,mfh,89.06
2023-04-07T12:43:00,mfh,89.21
2023-04-07T12:44:00,mfh,89.39
2023-04-07T12:45:00,mfh,89.43
2023-04-07T12:46:00,mfh,89.43
2023-04-07T12:47:00,mfh,89.36
2023-04-07T12:48:00,mfh,89.59
2023-04-07T12:49:00,mfh,89.53
2023-04-07T12:50:00,mfh,89.38
2023-04-07T12:51:00,mfh,89.31
2023-04-07T12:52:00,mfh,89.22
2023-04-07T12:53:00,mfh,89.15
2023-04-07T12:54:00,mfh,89.03
2023-04-07T12:55:00,mfh,89.33
2023-04-07T12:56:00,mfh,89.11
2023-04-07T12:57:00,mfh,89.19
2023-04-07T12:58:00,mfh,89.14
2023-04-07T12:59:00,mfh,89.09
2023-04-07T13:00:00,mfh,89.11
2023-04-07T13:01:00,mfh,89.18
2023-04-07T13:02:00,mfh,89.22
2023-04-07T13:03:00,mfh,89.01
2023-04-07T13:04:00,mfh,89.01
2023-04-07T13:05:00,mfh,88.73
2023-04-07T13:06:00,mfh,88.77
2023-04-07T13:07:00,mfh,88.88
2023-04-07T13:08:00,mfh,89.24
2023-04-07T13:09:00,mfh,89.20
2023-04-07T13:10:00,mfh,89.49
2023-04-07T13:11:00,mfh,89.25
2023-04-07T13:12:00,mfh,89.27
2023-04-07T13:13:00,mfh,89.34
2023-04-07T13:14:00,mfh,89.35
2023-04-07T13:15:00,mfh,89.28
2023-04-07T13:16:00,mfh,89.11
2023-04-07T13:17:00,mfh,88.93
2023-04-07T13:18:00,mfh,89.20